Location: Carrières
(48.9495°N, 2.0407°E)
Time: 18:34:53
(UTC+00:00)

Cosmos 1241 Rocket - Visible Passes

Search period start: 01 October 2023 00:00
Search period end: 11 October 2023 00:00
Orbit: 937 x 1010 km, 65.8° (Epoch: 29 September)

Date Brightness Start Highest point End Pass type
(mag) Time Alt. Az. Time Alt. Az. Time Alt. Az.
01 Oct 6.7 19:32:46 10° WNW 19:37:21 22° WSW 19:41:53 10° SSW visible
02 Oct 5.1 18:09:14 10° NW 18:15:24 60° WSW 18:21:26 10° SSE visible
02 Oct 7.2 20:00:11 10° W 20:01:42 11° W 20:03:14 10° WSW visible
03 Oct 6.1 18:34:34 10° NW 18:40:07 34° WSW 18:45:35 10° S visible
04 Oct 7.0 19:00:28 10° WNW 19:04:38 19° WSW 19:08:47 10° SSW visible
06 Oct 6.5 18:02:07 10° NW 18:07:26 30° WSW 18:12:42 10° S visible
07 Oct 7.2 18:28:14 10° WNW 18:31:55 16° WSW 18:35:34 10° SW visible
10 Oct 7.5 17:56:08 10° WNW 17:59:11 14° WSW 18:02:12 10° SW visible
